TimePDT,TemperatureF,Dew PointF,Humidity,Sea Level PressureIn,VisibilityMPH,Wind Direction,Wind SpeedMPH,Gust SpeedMPH,PrecipitationIn,Events,Conditions,WindDirDegrees,DateUTC
12:53 AM,54.0,48.9,83,29.73,10.0,SSW,10.4,-,N/A,,Overcast,210,2013-05-05 07:53:00
1:31 AM,53.6,48.2,82,29.75,10.0,SSW,6.9,-,N/A,,Overcast,210,2013-05-05 08:31:00
1:53 AM,54.0,48.9,83,29.73,10.0,SSW,12.7,-,N/A,,Overcast,210,2013-05-05 08:53:00
2:37 AM,53.6,48.2,82,29.73,10.0,SSW,8.1,-,N/A,,Overcast,210,2013-05-05 09:37:00
2:53 AM,54.0,48.9,83,29.72,10.0,SSW,6.9,-,N/A,,Overcast,210,2013-05-05 09:53:00
3:36 AM,53.6,48.2,82,29.72,10.0,SSW,6.9,-,N/A,,Overcast,210,2013-05-05 10:36:00
3:53 AM,54.0,48.0,80,29.71,10.0,SSW,9.2,-,N/A,,Overcast,200,2013-05-05 10:53:00
4:53 AM,55.0,48.0,77,29.71,10.0,SSW,3.5,-,N/A,,Overcast,210,2013-05-05 11:53:00
5:53 AM,55.0,46.9,74,29.73,10.0,SW,10.4,-,N/A,,Overcast,220,2013-05-05 12:53:00
6:53 AM,55.0,46.0,72,29.74,10.0,SSW,10.4,-,N/A,,Overcast,210,2013-05-05 13:53:00
7:53 AM,55.9,46.0,69,29.76,10.0,Variable,5.8,-,N/A,,Overcast,0,2013-05-05 14:53:00
8:53 AM,57.0,46.0,67,29.78,10.0,South,9.2,-,N/A,,Overcast,180,2013-05-05 15:53:00
9:53 AM,57.9,46.0,65,29.78,10.0,SSW,10.4,-,N/A,,Overcast,200,2013-05-05 16:53:00
11:12 AM,60.8,46.4,59,29.79,10.0,SSW,15.0,18.4,N/A,,Overcast,200,2013-05-05 18:12:00
11:53 AM,64.0,46.0,52,29.78,10.0,SSW,17.3,21.9,N/A,,Overcast,210,2013-05-05 18:53:00
12:53 PM,66.9,46.0,47,29.77,10.0,SSW,18.4,29.9,N/A,,Mostly Cloudy,200,2013-05-05 19:53:00
1:53 PM,63.0,46.9,56,29.77,10.0,SSW,20.7,27.6,N/A,,Overcast,200,2013-05-05 20:53:00
2:53 PM,64.0,48.0,56,29.77,10.0,SSW,16.1,25.3,N/A,,Overcast,210,2013-05-05 21:53:00
3:53 PM,64.9,46.0,50,29.76,10.0,SSW,17.3,33.4,N/A,,Mostly Cloudy,200,2013-05-05 22:53:00
4:53 PM,63.0,48.0,58,29.76,10.0,SSW,20.7,31.1,N/A,,Partly Cloudy,200,2013-05-05 23:53:00
5:53 PM,63.0,48.0,58,29.78,10.0,SSW,21.9,33.4,N/A,,Partly Cloudy,200,2013-05-06 00:53:00
6:53 PM,60.1,48.0,64,29.80,10.0,South,20.7,32.2,N/A,,Mostly Cloudy,190,2013-05-06 01:53:00
7:53 PM,59.0,48.0,67,29.81,10.0,South,10.4,27.6,N/A,,Scattered Clouds,180,2013-05-06 02:53:00
8:53 PM,57.9,46.9,67,29.82,10.0,South,8.1,-,N/A,,Mostly Cloudy,180,2013-05-06 03:53:00
9:53 PM,57.9,46.9,67,29.83,10.0,South,10.4,-,N/A,,Partly Cloudy,190,2013-05-06 04:53:00
10:53 PM,57.0,48.0,72,29.84,10.0,South,9.2,-,N/A,,Partly Cloudy,190,2013-05-06 05:53:00
11:53 PM,55.9,46.9,72,29.84,10.0,South,8.1,-,N/A,,Clear,180,2013-05-06 06:53:00